EW1736 Weather Reports


Display with metric or nautical units.
time (UTC)temp
F
wind
direction
speed
MPH
gust
MPH
rain 1hr
in
rain 24hr
in
rain mn
in
humidity
%
barometer
mb
20260906173509 60 355 8.0 15.0 0.00 0.00 0.00 86 1003.4
20260906171305 60 355 6.0 14.0 0.00 0.00 0.00 86 1003.6
20260906165806 60 346 5.0 14.0 0.00 0.00 0.00 86 1003.8
20260906164303 60 347 7.0 13.0 0.00 0.00 0.00 86 1004.0
20260906162757 60 0 5.0 9.0 0.00 0.00 0.00 86 1004.1
20260906161257 60 30 3.0 12.0 0.00 0.00 0.00 86 1004.3
20260906155753 60 24 9.0 12.0 0.00 0.00 0.00 87 1004.5
20260906154942 60 34 10.0 13.0 0.00 0.00 0.00 87 1004.7
20260906152749 60 44 11.0 13.0 0.00 0.00 0.00 87 1004.9
20260906151946 60 23 8.0 11.0 0.00 0.00 0.00 86 1005.2
20260906145745 60 34 4.0 9.0 0.00 0.00 0.00 86 1005.4
20260906144240 59 28 1.0 5.0 0.00 0.00 0.00 86 1005.7
20260906142731 59 24 3.0 4.0 0.00 0.00 0.00 85 1006.0
20260906141221 60 29 2.0 6.0 0.00 0.00 0.00 85 1006.2
20260906135722 60 317 3.0 9.0 0.00 0.00 0.00 85 1006.4
20260906134925 60 332 7.0 12.0 0.00 0.00 0.00 85 1006.9
20260906132714 60 334 8.0 13.0 0.00 0.00 0.00 84 1007.1
20260906131210 60 347 5.0 12.0 0.00 0.00 0.00 84 1007.2
20260906125705 60 34 4.0 11.0 0.00 0.00 0.00 84 1007.3
20260906124205 60 336 5.0 12.0 0.00 0.00 0.00 83 1007.5
20260906122701 60 17 6.0 13.0 0.00 0.00 0.00 83 1007.7
20260906121859 60 0 6.0 13.0 0.00 0.00 0.00 83 1007.8
20260906115657 60 332 7.0 14.0 0.00 0.00 0.00 83 1008.0
20260906114153 60 342 9.0 12.0 0.00 0.00 0.00 82 1008.1
20260906113407 59 292 5.0 10.0 0.00 0.00 0.00 81 1008.3
20260906111149 59 347 5.0 12.0 0.00 0.00 0.00 81 1008.6
20260906105645 59 309 8.0 14.0 0.00 0.00 0.00 81 1008.8
20260906104146 59 337 10.0 14.0 0.00 0.00 0.00 82 1008.9
20260906102640 59 315 10.0 15.0 0.00 0.00 0.00 82 1009.0
20260906101141 59 325 10.0 14.0 0.00 0.00 0.00 81 1009.2
20260906095637 59 330 6.0 12.0 0.00 0.00 0.00 81 1009.5
20260906094134 59 344 7.0 12.0 0.00 0.00 0.00 80 1009.7
20260906092634 59 338 5.0 14.0 0.00 0.00 0.00 80 1010.0
20260906091130 59 350 8.0 14.0 0.00 0.00 0.00 79 1009.9
20260906085625 59 342 5.0 12.0 0.00 0.00 0.00 79 1009.9
20260906084125 59 342 6.0 13.0 0.00 0.00 0.00 79 1010.0
20260906082622 59 336 6.0 11.0 0.00 0.00 0.00 79 1010.1
20260906081117 59 334 6.0 11.0 0.00 0.00 0.00 78 1010.4
20260906075618 59 324 6.0 10.0 0.00 0.00 0.00 77 1010.5
20260906074113 59 23 5.0 11.0 0.00 0.00 0.00 77 1010.6
20260906072609 59 338 8.0 12.0 0.00 0.00 0.00 77 1010.9
20260906071111 59 331 10.0 14.0 0.00 0.00 0.00 76 1011.1
20260906065605 59 355 7.0 12.0 0.00 0.00 0.00 74 1011.1
20260906064105 59 328 4.0 6.0 0.00 0.00 0.00 73 1011.2
20260906062602 59 325 4.0 5.0 0.00 0.00 0.00 72 1011.2
20260906061101 60 321 3.0 8.0 0.00 0.00 0.00 71 1011.4
20260906055559 61 306 3.0 8.0 0.00 0.00 0.00 70 1011.6
20260906054055 61 298 8.0 12.0 0.00 0.00 0.00 69 1011.7
20260906053242 62 319 5.0 14.0 0.00 0.00 0.00 67 1011.8
20260906051046 62 271 7.0 13.0 0.00 0.00 0.00 66 1012.0
20260906045543 62 269 9.0 16.0 0.00 0.00 0.00 66 1012.0
20260906044043 63 306 9.0 13.0 0.00 0.00 0.00 64 1012.0
20260906042537 62 316 4.0 16.0 0.00 0.00 0.00 66 1012.0
20260906041726 62 291 5.0 13.0 0.00 0.00 0.00 66 1012.1
20260906040242 62 246 12.0 17.0 0.00 0.00 0.00 64 1012.2
20260906034032 62 296 3.0 17.0 0.00 0.00 0.00 64 1012.6
20260906032525 62 281 9.0 15.0 0.00 0.00 0.00 63 1012.7
20260906031026 62 273 9.0 15.0 0.00 0.00 0.00 63 1012.8
20260906025522 62 286 11.0 16.0 0.00 0.00 0.00 62 1012.9
20260906024720 62 332 10.0 15.0 0.00 0.00 0.00 61 1013.0
20260906022520 62 284 9.0 17.0 0.00 0.00 0.00 61 1013.1
20260906021014 63 299 11.0 17.0 0.00 0.00 0.00 58 1013.2
20260906015515 63 298 9.0 16.0 0.00 0.00 0.00 57 1013.3
20260906014010 63 313 8.0 16.0 0.00 0.00 0.00 58 1013.5
20260906012506 62 272 14.0 20.0 0.00 0.00 0.00 55 1013.8
20260906011008 63 271 9.0 15.0 0.00 0.00 0.00 56 1014.0
20260906010209 62 293 7.0 14.0 0.00 0.00 0.00 60 1014.3
20260906003957 62 302 6.0 13.0 0.00 0.00 0.00 62 1014.6
20260906003202 62 279 5.0 14.0 0.00 0.00 0.00 63 1015.0
20260906000953 62 301 8.0 15.0 0.00 0.00 0.00 64 1015.3
20260906000150 62 280 10.0 18.0 0.00 0.00 0.00 64 1015.4
20260905233950 61 267 9.0 15.0 0.00 0.00 0.00 65 1015.7
20260905233836 61 285 9.0 17.0 0.00 0.00 0.00 66 1016.1
20260905230946 61 269 11.0 15.0 0.00 0.00 0.00 67 1016.4
20260905225446 60 276 8.0 16.0 0.00 0.00 0.00 69 1017.0
20260905223942 61 263 11.0 16.0 0.00 0.00 0.00 68 1017.1
20260905222438 60 281 9.0 14.0 0.00 0.00 0.00 72 1017.1
20260905220934 61 275 9.0 15.0 0.00 0.00 0.00 72 1017.5
20260905215428 60 255 9.0 17.0 0.00 0.00 0.00 74 1017.7
20260905214626 59 275 7.0 15.0 0.00 0.00 0.00 76 1017.8
20260905212425 58 265 12.0 15.0 0.00 0.00 0.00 77 1017.8
20260905210921 58 265 6.0 11.0 0.00 0.00 0.00 79 1017.9
20260905205422 58 250 6.0 11.0 0.00 0.00 0.00 81 1017.9
20260905203917 56 249 8.0 13.0 0.00 0.00 0.00 82 1018.1
20260905202412 55 270 7.0 11.0 0.00 0.00 0.00 83 1018.1
20260905200913 55 290 7.0 10.0 0.00 0.00 0.00 83 1018.0
20260905195409 54 284 7.0 9.0 0.00 0.00 0.00 83 1017.9
20260905193909 54 284 6.0 11.0 0.00 0.00 0.00 83 1017.9
20260905192405 54 276 10.0 12.0 0.00 0.00 0.00 84 1017.7
20260905190901 53 281 4.0 8.0 0.00 0.00 0.00 83 1017.7
20260905185356 53 274 5.0 9.0 0.00 0.00 0.00 83 1017.4
20260905183850 53 280 5.0 9.0 0.00 0.00 0.00 83 1017.3
20260905182350 52 263 6.0 11.0 0.00 0.00 0.00 83 1017.1
20260905180846 52 274 8.0 11.0 0.00 0.00 0.00 83 1017.1
20260905175347 52 273 8.0 10.0 0.00 0.00 0.00 82 1016.9
20260905173842 52 277 7.0 9.0 0.00 0.00 0.00 82 1017.0